SCP
0 0 0 0 0 0 0 0 0 0 0 0 0 0 0 0 0 0 0 0 0 0 0 0 0 0 0 0 0 0 0 0 0 0 0 0 0 0 0 0 0 0 0
0 0 0 0 0 0 0 0 0 0 0 0 0 0 0 0 0 0 0 0 0 0 0 0 0 0 0 0 0 0 0 0 0 0 0 0 0 0 0 0 0 0 0
0 0 0 0 0 0 0 0 0 0 0 0 0 0 0 0 0 0 0 0 0 0 0 0 0 0 0 0 0 0 0 0 0 0 0 0 0 0 0 0 0 0 0
0 0 0 0 0 0 0 -0 -0 0 0 0 0 0 0 0 0 0 0 0 0 0 0 0 0 0 0 0 0 0 0 0 0 0 0 0 0 0 0 0 0 0 0
0 0 0 0 0 0 0 -0 -0 -0 0 0 0 0 0 0 0 0 0 0 0 0 0 0 0 0 0 0 0 0 0 0 0 0 0 0 0 0 0 0 0 0 0
0 0 0 0 0 0 0 0 -0 -0 -0 -0 0 0 0 0 0 0 0 0 0 0 0 0 0 0 0 0 0 0 0 0 0 0 0 0 0 0 0 0 0 0 0
0 0 0 0 0 0 0 0 -0 -0 -0 -0 -0 -0 0 0 0 0 0 0 0 0 0 0 0 0 0 0 0 0 0 0 0 0 0 0 0 0 0 0 0 0 0
0 0 0 0 0 0 0 0 0 0 -0 -0 -0 -0 -0 -0 -0 -0 0 0 0 0 0 0 0 0 0 0 0 0 0 0 0 0 0 0 0 0 0 0 0 0 0
0 0 0 0 0 0 0 0 0 0 0 0 0 0 -0 -0 -0 0 0 0 0 0 0 0 0 0 0 0 0 0 0 0 0 0 0 0 0 0 0 0 0 0 0
0 0 0 0 0 0 0 0 0 0 0 0 0 0 0 0 0 0 0 0 0 0 0 0 0 0 0 0 0 0 0 0 0 0 0 0 0 0 0 0 0 0 0
0 0 0 0 0 0 0 0 0 0 0 0 0 0 0 -0 0 0 0 0 0 0 0 0 0 0 0 0 0 0 0 0 0 0 0 0 0 0 0 0 0 0 0
0 0 0 0 0 0 0 0 0 0 0 0 0 0 0 0 0 0 0 0 0 0 0 0 0 0 0 0 0 0 0 0 0 0 0 0 0 0 0 0 0 0 0
0 0 0 0 0 0 0 0 0 0 0 0 0 0 0 0 0 0 0 0 0 0 0 0 0 0 0 0 0 0 0 0 0 0 0 0 0 0 0 0 0 0 0
0 0 0 0 0 0 0 0 0 0 0 0 0 0 0 0 0 0 0 0 0 0 0 0 0 0 0 0 0 0 0 0 0 0 0 0 0 0 0 0 0 0 0
0 0 0 0 0 0 0 0 0 0 0 0 0 0 0 0 0 0 0 0 0 0 0 0 0 0 0 0 0 0 0 0 0 0 0 0 0 0 0 0 0 0 0
-0 -0 0 0 0 0 0 0 0 0 0 0 0 0 0 0 0 0 0 0 0 0 0 0 0 0 0 0 0 0 0 0 0 0 0 0 0 0 0 0 0 0 0
-0 -0 0 0 0 0 0 0 0 0 0 0 0 0 0 0 0 0 0 0 0 0 0 0 0 0 0 0 0 0 0 0 0 0 0 0 0 0 0 0 0 0 0
-0 -0 0 0 0 0 0 0 0 0 0 0 0 0 0 0 0 0 0 0 0 0 0 0 0 0 0 0 0 0 0 0 0 0 0 0 0 0 0 0 0 0 0
-0 -0 0 0 0 0 0 0 0 0 0 0 0 0 0 0 0 0 0 0 0 0 0 0 0 0 0 0 0 0 0 0 0 0 0 0 0 0 0 0 0 0 0
-0 0 0 0 0 0 0 0 0 0 0 0 0 0 0 0 0 0 0 0 0 0 0 0 0 0 0 0 0 0 0 0 0 0 0 0 0 0 0 0 0 0 0
0 0 0 0 0 0 0 0 0 0 0 0 0 0 0 0 0 0 0 0 0 0 0 0 0 0 0 0 0 0 0 0 0 0 0 0 0 0 0 0 0 0 0
0 0 0 0 0 0 0 0 0 0 0 0 0 0 0 0 0 0 0 0 0 0 0 0 0 0 0 0 0 0 0 0 0 0 0 0 0 0 0 0 0 0 0
0 0 0 0 0 0 0 0 0 0 0 0 0 0 0 0 0 0 0 0 0 0 0 0 0 0 0 0 0 0 0 0 0 0 0 0 0 0 0 0 0 0 0
0 0 0 0 0 0 0 0 0 0 0 0 0 0 0 0 0 0 0 0 0 0 0 0 0 0 0 0 0 0 0 0 0 0 0 0 0 0 0 0 0 0 0
0 0 0 0 0 0 0 0 0 0 0 0 0 0 0 0 0 0 0 0 0 0 0 0 0 0 0 0 0 0 0 0 0 0 0 0 0 0 0 0 0 0 0
0 0 0 0 0 0 0 0 0 0 0 0 0 0 0 0 0 0 0 0 0 0 0 0 0 0 0 0 0 0 0 0 0 0 0 0 0 0 0 0 0 0 0
Wind_Speed
3 3 2 1 1 2 3 4 5 5 6 6 5 4 3 2 2 2 2 3 4 3 3 4 4 3 3 2 2 2 2 3 4 2 3 3 5 5 5 4 4 3 2
4 4 3 2 1 1 2 4 5 5 5 5 5 4 4 3 2 2 2 3 4 5 5 5 5 5 5 3 3 4 3 3 4 4 3 4 5 4 4 5 4 4 4
5 5 4 3 2 1 1 2 3 4 5 5 5 5 5 5 5 6 7 7 8 7 6 6 6 6 6 4 5 5 5 6 5 5 3 3 3 3 4 4 4 4 4
6 5 5 5 4 3 1 1 2 3 4 4 5 5 5 6 7 8 8 9 9 8 7 6 6 6 6 6 6 7 7 8 6 5 4 4 3 3 3 4 4 4 4
6 6 6 6 5 4 3 1 1 2 2 3 4 4 5 4 5 6 7 9 8 8 7 7 7 9 9 8 7 7 8 7 6 5 4 4 4 4 4 3 3 3 3
7 7 7 6 6 5 4 3 1 1 1 2 3 3 4 4 6 7 7 7 7 8 7 7 7 9 11 13 13 11 9 8 6 5 3 4 3 3 3 3 3 4 4
8 8 8 8 8 7 6 4 3 2 1 1 2 3 4 4 7 9 10 8 7 6 6 6 6 7 7 7 10 12 11 10 7 5 4 2 2 2 3 4 4 3 2
8 8 9 9 9 8 7 6 4 3 3 2 3 4 4 5 8 11 12 9 8 7 6 7 7 6 5 7 7 7 6 6 5 4 3 1 1 0 1 1 1 2 3
7 8 10 11 10 10 9 7 5 4 4 3 4 5 5 4 9 11 10 7 7 6 5 6 7 7 9 10 8 7 6 5 6 8 6 5 5 6 4 4 4 4 3
10 9 9 11 12 12 11 8 6 5 5 5 5 5 6 4 7 11 11 6 6 5 5 5 8 8 10 10 7 6 6 4 4 6 7 8 7 7 8 4 2 2 2
12 11 9 10 12 12 11 8 7 6 6 6 6 5 5 6 7 11 11 6 6 5 4 3 3 9 10 10 8 5 5 4 5 6 5 5 5 5 5 4 3 3 3
11 11 9 9 11 11 11 10 9 9 8 7 6 5 3 4 5 8 10 9 9 6 5 3 3 8 9 9 6 8 10 8 5 5 5 4 4 4 4 4 5 4 2
11 11 10 9 10 10 12 12 10 9 8 7 7 6 5 3 4 8 10 13 13 6 4 7 7 7 7 6 7 9 7 5 5 5 4 2 2 2 3 4 6 5 6
10 10 10 8 9 10 10 11 10 10 10 9 8 7 6 5 4 3 4 6 9 6 4 5 5 6 5 4 5 5 4 4 4 4 2 2 2 3 4 3 4 4 4
8 9 9 8 8 9 10 11 13 12 13 11 10 9 10 8 9 12 9 6 6 6 6 3 2 2 3 3 3 3 3 3 4 3 3 3 3 3 3 3 3 3 4
6 7 7 8 7 7 8 7 10 10 16 16 14 12 10 11 15 16 14 13 13 13 7 4 3 3 3 3 3 2 2 3 3 3 3 3 3 3 3 3 3 3 3
7 6 6 8 7 6 8 9 7 5 10 15 16 17 14 15 18 18 16 14 14 13 5 4 3 3 3 4 4 4 3 3 3 3 3 2 2 2 2 2 3 3 3
7 7 7 7 6 6 8 9 10 10 9 6 8 14 17 18 19 18 16 11 6 4 3 4 4 4 4 5 5 4 4 3 3 3 3 2 2 2 2 2 2 2 2
7 6 5 6 6 6 7 9 9 10 10 7 4 4 10 14 15 16 15 6 7 5 4 4 4 4 5 6 6 5 5 4 4 3 3 3 2 2 2 1 1 3 2
7 11 8 6 7 6 7 9 9 10 10 9 9 8 8 7 6 8 6 5 6 6 6 5 5 5 5 6 6 6 5 5 5 4 4 4 3 3 3 3 2 2 1
7 7 9 7 6 6 7 10 10 11 11 10 10 11 17 13 12 11 9 7 7 7 6 6 5 6 6 6 6 7 7 5 5 5 5 4 4 3 3 3 3 3 2
6 6 5 5 6 6 7 9 10 11 12 12 9 10 15 9 9 9 9 8 7 6 6 6 6 6 7 8 8 7 7 6 6 6 5 5 5 4 4 3 3 3 3
7 7 6 5 6 6 7 8 10 11 11 11 11 11 11 7 8 8 9 8 7 6 5 6 6 5 6 7 8 8 9 8 8 8 7 6 5 5 5 4 5 4 3
7 7 6 5 5 5 6 9 10 11 12 12 11 11 12 10 9 9 8 7 7 6 6 6 6 8 10 8 7 7 7 8 8 8 11 9 8 6 5 5 5 6 5
7 7 6 6 5 5 6 9 10 11 12 12 12 11 11 10 9 8 8 7 8 7 8 7 6 8 11 12 10 9 11 12 11 9 8 8 9 8 7 7 6 5 4
6 6 5 5 5 5 7 8 10 11 11 11 11 11 11 10 10 9 8 7 7 7 8 7 9 10 11 11 13 13 12 12 12 12 9 8 9 8 8 6 8 6 6
Wind_Direction
166 151 134 107 38 20 0 341 332 330 333 336 333 335 329 304 249 197 201 180 169 164 164 148 133 121 114 114 121 116 114 124 117 60 20 11 24 16 3 10 24 33 34
177 167 160 151 110 45 355 337 338 339 339 341 343 352 2 12 31 89 115 118 123 122 117 111 108 106 91 86 91 89 87 95 111 95 34 21 23 12 13 21 21 38 38
176 170 171 171 163 169 311 329 336 340 346 355 10 19 23 32 55 69 79 81 83 84 88 94 96 97 87 79 79 78 77 80 83 92 56 18 9 6 8 13 23 26 33
181 177 184 190 188 194 211 297 322 335 354 6 16 26 38 50 67 75 79 79 81 79 77 79 80 86 89 85 80 81 87 83 78 77 57 24 7 343 15 9 10 12 17
186 188 195 192 185 186 193 223 298 338 357 7 26 30 40 59 73 86 93 95 91 85 78 75 74 77 77 82 90 90 90 88 80 75 61 41 20 12 358 342 8 352 0
196 199 194 183 184 188 194 202 228 286 332 25 34 44 48 64 86 94 99 98 99 96 89 77 71 64 73 76 82 86 93 99 96 86 71 61 27 7 354 13 19 26 0
208 201 190 185 188 192 192 194 207 220 204 104 73 81 71 72 98 107 107 105 101 99 95 84 79 68 72 78 72 68 68 77 98 114 97 81 53 6 24 26 28 44 6
224 207 194 189 191 188 186 194 202 198 184 159 134 116 96 89 106 110 104 95 91 87 89 94 90 70 76 92 81 67 55 48 55 74 105 107 102 70 74 55 340 16 336
256 227 204 192 189 186 189 194 193 184 183 172 154 143 124 103 107 113 108 99 93 81 78 83 92 84 86 90 84 72 50 23 39 58 73 73 56 53 59 49 33 42 3
299 271 229 198 189 190 192 187 180 178 182 167 158 156 143 129 118 121 119 114 106 96 77 69 82 96 91 89 89 83 66 30 38 50 49 41 38 37 47 66 87 72 34
313 299 260 214 197 191 187 178 173 173 170 168 162 160 153 146 131 132 135 132 135 127 114 99 88 99 95 92 91 87 94 98 77 72 59 38 28 26 23 27 49 98 88
317 309 285 233 206 192 181 179 175 170 171 171 164 158 159 156 144 142 146 150 149 138 143 147 136 113 101 94 86 87 89 86 76 67 57 38 27 15 3 13 29 45 77
320 314 305 264 217 189 181 180 175 175 176 177 173 170 167 164 162 156 150 151 150 139 153 161 150 120 95 83 85 87 82 81 80 74 64 37 3 359 15 19 17 22 25
314 313 310 285 230 199 184 181 178 181 182 181 180 177 167 162 165 159 142 141 140 128 130 145 129 104 87 80 75 72 77 96 105 99 85 35 21 30 29 26 27 17 24
306 312 313 298 246 206 192 188 184 189 187 182 185 179 173 178 189 174 160 159 158 152 132 102 92 90 84 71 69 72 77 83 86 80 73 55 42 39 21 15 33 39 39
291 306 309 304 264 216 192 185 193 185 187 185 182 178 185 184 173 176 175 172 165 154 134 134 148 149 145 146 141 123 102 106 112 107 90 81 68 55 31 16 32 43 32
266 285 299 295 272 221 188 177 171 172 183 184 184 182 178 172 171 176 177 170 164 152 134 153 162 169 166 162 159 152 153 152 139 125 112 103 94 73 58 33 23 30 24
256 273 290 288 278 234 196 184 177 171 168 173 193 191 177 170 170 169 159 139 145 157 155 164 173 174 167 163 164 160 157 150 140 139 135 125 112 100 77 52 41 43 35
253 259 276 290 280 244 203 183 177 174 170 159 137 159 176 164 160 160 153 150 163 176 178 175 172 168 170 167 167 166 163 161 159 156 157 155 146 126 105 82 75 60 69
252 260 271 285 282 246 202 182 175 170 165 164 165 157 149 141 152 169 182 169 168 176 179 180 178 173 172 172 169 167 166 165 164 167 172 174 168 154 142 130 120 105 92
249 254 265 276 270 245 204 184 176 171 170 170 171 169 168 171 175 179 185 182 179 180 181 181 179 178 178 176 173 172 172 177 179 178 178 180 174 168 161 151 146 138 130
247 243 241 255 262 243 205 185 176 173 172 169 162 165 176 173 173 179 187 191 189 184 179 177 181 184 184 183 182 177 179 183 186 184 184 182 180 174 163 156 153 146 139
246 243 241 246 254 237 205 185 177 173 172 169 164 162 176 186 178 183 189 191 188 186 182 179 183 190 191 189 186 183 186 192 192 185 182 182 180 177 168 167 166 157 158
239 240 240 244 246 227 194 183 178 175 172 169 167 169 178 187 186 188 188 186 188 191 187 185 190 197 196 194 195 195 197 196 188 187 184 182 180 177 171 168 169 167 166
235 235 236 238 235 213 190 181 177 173 171 171 170 172 177 184 188 188 186 186 188 193 196 194 196 200 201 198 198 203 206 202 198 190 185 182 180 177 173 171 169 165 166
233 233 232 231 226 205 187 177 174 170 168 171 172 173 176 182 189 189 185 184 189 194 199 200 203 204 203 203 206 205 203 202 201 194 183 178 178 178 172 170 169 167 163